#timestamp,LO_Frequency,Hit,StdDev 
1583697615.4,286047001.6,N
1583697635.3,286047001.6,N
1583697655.1,286047002.6,N
1583697675.9,286047002.2,N
1583697695.7,286047000.3,N
1583697715.5,286047000.6,N
1583697735.4,286047000.3,N
1583697755.2,286047001.0,N
1583697775.0,286047000.3,N
1583697776.0,286047000.3,N
1583697795.8,286047000.4,N
1583697815.6,286047002.8,N
1583697835.5,286047002.3,N
1583697855.3,286047000.4,N
1583697875.1,286046999.7,N
1583697895.9,286047000.1,N
1583697915.7,286047002.6,N
1583697935.6,286047000.2,N
1583697955.4,286047002.8,N
1583697975.2,286047004.3,Y
1583697995.1,286047001.3,P
1583697996.0,286047001.3,P
1583698015.8,286047002.2,P
1583698035.7,286047002.5,Y
1583698055.5,286046998.4,P
1583698075.3,286046999.3,N
1583698095.2,286046998.3,N
1583698115.0,286046998.6,N
1583698115.9,286046998.6,N
1583698135.8,286046999.3,N
1583698155.6,286046999.2,N
1583698175.4,286046999.1,N
1583698195.3,286046996.5,Y
1583698215.1,286046998.6,P
1583698235.8,286046999.0,P
1583698255.7,286046999.0,P
1583698275.5,286046998.7,Y
1583698295.4,286046999.7,P
1583698315.2,286047000.2,N
1583698335.0,286047001.7,P
1583698335.9,286047001.7,N
1583698355.8,286047002.5,N
1583698375.6,286047002.7,N
1583698395.5,286047000.5,N
1583698415.3,286046999.7,N
1583698435.1,286046998.1,N
1583698455.9,286046998.8,N
1583698475.7,286046999.0,N
1583698495.5,286046999.2,N
1583698515.4,286046995.4,Y
1583698535.2,286046994.9,P
1583698555.1,286046996.2,N
1583698556.0,286046996.2,N
1583698575.8,286046995.1,N
1583698595.6,286046995.1,N
1583698615.5,286046995.6,N
1583698635.3,286046995.5,N
1583698655.2,286046995.7,N
1583698675.9,286046995.3,Y
1583698695.7,286046999.8,P
1583698715.6,286047003.9,N
1583698735.4,286047001.7,N
1583698755.2,286047001.9,N
1583698775.1,286047001.7,N
1583698776.0,286047001.7,N
1583698795.8,286047002.1,N
1583698815.7,286047000.5,N
1583698835.5,286047001.0,N
1583698855.3,286047000.6,N
1583698875.2,286047000.8,N
1583698895.0,286047001.9,N
1583698895.9,286047001.9,N
1583698915.7,286047002.8,N
1583698935.6,286047002.7,N
1583698955.4,286046999.9,N
1583698975.3,286047002.8,N
1583698995.1,286047000.0,N
1583699015.8,286047000.2,N
1583699035.7,286047002.7,N
1583699055.5,286047004.2,N
1583699075.4,286047005.9,Y
1583699095.2,286047001.7,P
1583699115.0,286047002.2,P
1583699115.9,286047002.2,P
1583699135.8,286047004.3,Y
1583699155.6,286046998.1,P
1583699175.4,286046999.1,N
1583699195.3,286046997.7,N
1583699215.1,286046996.8,N
1583699235.9,286046999.2,N
1583699255.7,286046997.2,N
1583699275.5,286046997.4,N
1583699295.4,286046996.8,N
1583699315.2,286046996.7,N
1583699335.0,286046997.1,N
1583699336.0,286046997.1,N
1583699355.8,286046996.9,N
1583699375.6,286046997.2,N
1583699395.5,286046997.7,N
1583699415.3,286046997.8,N
1583699435.1,286046997.5,N
1583699455.9,286046997.7,N
1583699475.7,286046997.6,N
1583699495.6,286046998.0,N
1583699515.4,286046997.9,N
1583699535.2,286046997.7,N
1583699555.1,286046995.4,Y
1583699556.0,286046995.4,P
1583699575.8,286046998.5,N
1583699595.6,286046998.4,N
1583699615.5,286046998.3,N
1583699635.3,286047001.1,N
1583699655.2,286046998.1,N
1583699675.9,286046998.4,N
1583699695.7,286046999.1,N
1583699715.6,286046998.6,N
1583699735.4,286046999.7,N
1583699755.2,286047000.5,N
1583699775.1,286046999.7,N
1583699776.0,286046999.7,N
1583699795.8,286046999.9,N
1583699815.7,286047001.0,N
1583699835.5,286046998.2,N
1583699855.3,286046999.0,N
1583699875.2,286046998.6,N
1583699895.0,286046996.5,N
1583699895.9,286046996.5,N
1583699915.8,286046997.8,N
1583699935.6,286046996.5,N
1583699955.4,286046999.5,N
1583699975.3,286046999.5,N
1583699995.1,286046998.5,N
1583700015.8,286046998.7,N
1583700035.7,286047002.7,N
1583700055.5,286047002.7,N
1583700075.4,286047002.0,N
1583700095.2,286046999.9,N
1583700115.0,286046999.7,N
1583700115.9,286046999.7,N
1583700135.8,286047000.1,N
1583700155.6,286047001.0,N
1583700175.4,286047000.3,N
1583700195.3,286046998.2,N
1583700215.1,286046998.5,N
1583700235.9,286046998.5,N
1583700255.7,286046998.9,N
1583700275.5,286046998.9,N
1583700295.4,286046998.6,N
1583700315.2,286046998.5,N
1583700335.0,286047000.9,N
1583700336.0,286047000.9,N
1583700355.8,286047000.2,N
1583700375.6,286047000.0,N
1583700395.5,286046999.9,N
1583700415.3,286047000.9,N
1583700435.1,286046998.3,N
1583700455.9,286046998.8,N
1583700475.7,286047000.8,N
1583700495.6,286046998.3,N
1583700515.4,286046998.1,N
1583700535.2,286046998.5,N
1583700555.1,286046998.5,N
1583700556.0,286046998.5,N
1583700575.8,286046998.3,N
1583700595.6,286046998.2,N
1583700615.5,286047001.0,N
1583700635.3,286047001.6,N
1583700655.2,286047001.3,N
1583700675.9,286047004.4,Y
1583700695.7,286047001.4,P
1583700715.6,286047001.4,N
1583700735.4,286047002.5,N
1583700755.3,286047002.4,N
1583700775.1,286046999.8,N
1583700776.0,286046999.8,N
1583700795.8,286047001.8,N
1583700815.7,286047002.2,N
1583700835.5,286047001.5,N
1583700855.3,286047001.6,N
1583700875.2,286047000.1,N
1583700895.0,286047001.5,N
1583700895.9,286047001.5,N
1583700915.8,286047002.2,N
1583700935.6,286047000.4,N
1583700955.4,286047001.7,N
1583700975.3,286047004.0,Y
1583700995.1,286047002.1,P
1583701015.9,286047000.2,N
1583701035.7,286046998.5,N
1583701055.5,286046996.6,N
1583701075.4,286046996.9,N
1583701095.2,286046999.4,N
1583701115.0,286046997.0,N
1583701115.9,286046997.0,N
1583701135.8,286046999.4,N
1583701155.6,286046997.4,N
1583701175.5,286046999.6,N
1583701195.3,286046997.4,N
